CEB069 RPMD-RPVA

Flight info

Callsign CEB069
Flight time 0h 51m
Altitude 35000
Route RPMD/05 N0441F340 RIMA1C RIMAR W9 BANWA BANW3R RPVA/18
Aircraft A320/M-V/N

Departure

Time 2026-04-28 19:03
Airport Francisco Bangoy International Airport (RPMD)

Arrival

Time 2026-04-28 19:54
Airport Daniel Z. Romualdez Airport (RPVA)
Time Latitude Longitude Altitude Speed Heading
2026-04-28 18:28 7.12903 125.64513 82 ft 0 kts 323°
2026-04-28 18:44 7.12870 125.64541 69 ft 4 kts 314°
2026-04-28 18:44 7.12854 125.64562 71 ft 4 kts 294°
2026-04-28 18:45 7.12849 125.64580 71 ft 4 kts 245°
2026-04-28 18:45 7.12863 125.64599 73 ft 4 kts 225°
2026-04-28 18:45 7.12872 125.64608 83 ft 0 kts 227°
2026-04-28 18:47 7.12855 125.64588 77 ft 7 kts 230°
2026-04-28 18:48 7.12823 125.64549 70 ft 7 kts 230°
2026-04-28 18:48 7.12793 125.64514 74 ft 6 kts 227°
2026-04-28 18:48 7.12757 125.64474 73 ft 11 kts 227°
2026-04-28 18:48 7.12706 125.64445 68 ft 8 kts 172°
2026-04-28 18:49 7.12664 125.64474 72 ft 7 kts 138°
2026-04-28 18:49 7.12640 125.64495 75 ft 7 kts 140°
2026-04-28 18:49 7.12622 125.64510 75 ft 0 kts 140°
2026-04-28 18:55 7.12606 125.64524 74 ft 6 kts 140°
2026-04-28 18:56 7.12556 125.64561 67 ft 10 kts 160°
2026-04-28 18:56 7.12505 125.64525 73 ft 9 kts 230°
2026-04-28 18:56 7.12465 125.64476 73 ft 9 kts 230°
2026-04-28 18:56 7.12425 125.64431 70 ft 8 kts 229°
2026-04-28 18:57 7.12392 125.64393 72 ft 7 kts 229°
2026-04-28 18:57 7.12347 125.64341 69 ft 12 kts 229°
2026-04-28 18:57 7.12297 125.64284 68 ft 10 kts 229°
2026-04-28 18:57 7.12253 125.64233 71 ft 9 kts 229°
2026-04-28 18:58 7.12213 125.64187 74 ft 8 kts 229°
2026-04-28 18:58 7.12176 125.64144 72 ft 10 kts 229°
2026-04-28 18:58 7.12119 125.64079 75 ft 15 kts 229°
2026-04-28 18:58 7.12057 125.64006 71 ft 13 kts 229°
2026-04-28 18:59 7.11998 125.63938 73 ft 12 kts 229°
2026-04-28 18:59 7.11942 125.63875 72 ft 11 kts 229°
2026-04-28 18:59 7.11893 125.63817 73 ft 10 kts 229°
2026-04-28 18:59 7.11847 125.63764 70 ft 10 kts 229°
2026-04-28 19:00 7.11792 125.63700 68 ft 14 kts 230°
2026-04-28 19:00 7.11750 125.63629 70 ft 9 kts 260°
2026-04-28 19:00 7.11750 125.63567 73 ft 9 kts 259°
2026-04-28 19:00 7.11711 125.63534 69 ft 7 kts 179°
2026-04-28 19:01 7.11680 125.63564 70 ft 6 kts 107°
2026-04-28 19:01 7.11714 125.63612 67 ft 12 kts 41°
2026-04-28 19:01 7.11736 125.63635 62 ft 4 kts 48°
2026-04-28 19:01 7.11747 125.63647 71 ft 0 kts 48°
2026-04-28 19:02 7.11748 125.63649 71 ft 5 kts 50°
2026-04-28 19:02 7.11839 125.63755 71 ft 33 kts 49°
2026-04-28 19:02 7.12125 125.64081 70 ft 97 kts 48°
2026-04-28 19:02 7.12700 125.64740 75 ft 153 kts 48°
2026-04-28 19:03 7.13409 125.65636 575 ft 165 kts 51°
2026-04-28 19:03 7.14110 125.66568 1293 ft 169 kts 51°
2026-04-28 19:03 7.14810 125.67544 2015 ft 174 kts 51°
2026-04-28 19:03 7.15546 125.68547 2596 ft 180 kts 44°
2026-04-28 19:04 7.16533 125.69302 3234 ft 181 kts 28°
2026-04-28 19:04 7.17708 125.69869 3751 ft 196 kts 24°
2026-04-28 19:04 7.19032 125.70427 4172 ft 216 kts 18°
2026-04-28 19:04 7.20582 125.70722 4652 ft 239 kts 356°
2026-04-28 19:05 7.22210 125.70106 5091 ft 267 kts 326°
2026-04-28 19:05 7.23624 125.68826 5868 ft 277 kts 320°
2026-04-28 19:05 7.25107 125.67564 6732 ft 281 kts 323°
2026-04-28 19:05 7.26672 125.66359 7561 ft 285 kts 325°
2026-04-28 19:06 7.28291 125.65179 8394 ft 289 kts 329°
2026-04-28 19:06 7.29468 125.64560 8914 ft 290 kts 341°
2026-04-28 19:06 7.32097 125.64018 9961 ft 293 kts 356°
2026-04-28 19:06 7.34172 125.63796 10401 ft 311 kts 355°
2026-04-28 19:07 7.36402 125.63544 10709 ft 331 kts 355°
2026-04-28 19:07 7.38719 125.63272 11323 ft 338 kts 355°
2026-04-28 19:07 7.41069 125.62990 12041 ft 341 kts 355°
2026-04-28 19:07 7.43443 125.62707 12774 ft 345 kts 355°
2026-04-28 19:08 7.45842 125.62425 13485 ft 348 kts 355°
2026-04-28 19:08 7.48264 125.62152 14129 ft 351 kts 356°
2026-04-28 19:08 7.50672 125.61917 14734 ft 354 kts 356°
2026-04-28 19:08 7.53144 125.61698 15325 ft 357 kts 356°
2026-04-28 19:09 7.55637 125.61483 15919 ft 361 kts 356°
2026-04-28 19:09 7.58158 125.61264 16521 ft 364 kts 356°
2026-04-28 19:09 7.60700 125.61037 17119 ft 368 kts 356°
2026-04-28 19:09 7.63260 125.60804 17705 ft 371 kts 356°
2026-04-28 19:10 7.65845 125.60568 18266 ft 374 kts 356°
2026-04-28 19:10 7.68455 125.60330 18767 ft 378 kts 356°
2026-04-28 19:10 7.71088 125.60088 19255 ft 381 kts 356°
2026-04-28 19:10 7.73735 125.59843 19739 ft 384 kts 356°
2026-04-28 19:11 7.76409 125.59593 20209 ft 387 kts 356°
2026-04-28 19:11 7.79104 125.59343 20699 ft 391 kts 356°
2026-04-28 19:11 7.81824 125.59093 21153 ft 394 kts 356°
2026-04-28 19:11 7.84570 125.58840 21616 ft 398 kts 356°
2026-04-28 19:12 7.87345 125.58583 22084 ft 401 kts 356°
2026-04-28 19:12 7.90103 125.58327 22522 ft 404 kts 356°
2026-04-28 19:12 7.92920 125.58065 22968 ft 408 kts 356°
2026-04-28 19:12 7.95763 125.57801 23407 ft 411 kts 356°
2026-04-28 19:13 7.98626 125.57495 23783 ft 415 kts 354°
2026-04-28 19:13 8.01501 125.57085 24139 ft 418 kts 353°
2026-04-28 19:13 8.04382 125.56603 24501 ft 421 kts 352°
2026-04-28 19:13 8.07258 125.56093 24859 ft 423 kts 352°
2026-04-28 19:14 8.10169 125.55574 25209 ft 426 kts 352°
2026-04-28 19:14 8.13103 125.55062 25584 ft 429 kts 352°
2026-04-28 19:14 8.16058 125.54564 25932 ft 431 kts 352°
2026-04-28 19:14 8.18987 125.54085 26274 ft 434 kts 353°
2026-04-28 19:15 8.21990 125.53602 26624 ft 437 kts 353°
2026-04-28 19:15 8.25003 125.53120 26957 ft 439 kts 353°
2026-04-28 19:15 8.28029 125.52635 27280 ft 442 kts 353°
2026-04-28 19:15 8.30075 125.52306 27497 ft 444 kts 353°
2026-04-28 19:16 8.34141 125.51648 27928 ft 447 kts 353°
2026-04-28 19:16 8.37228 125.51144 28240 ft 450 kts 353°
2026-04-28 19:16 8.40327 125.50638 28559 ft 452 kts 352°
2026-04-28 19:16 8.43444 125.50128 28875 ft 455 kts 352°
2026-04-28 19:17 8.46578 125.49613 29196 ft 457 kts 352°
2026-04-28 19:17 8.49733 125.49095 29518 ft 460 kts 352°
2026-04-28 19:17 8.52899 125.48577 29815 ft 462 kts 352°
2026-04-28 19:17 8.56084 125.48058 30094 ft 465 kts 353°
2026-04-28 19:18 8.59245 125.47544 30333 ft 467 kts 352°
2026-04-28 19:18 8.62459 125.47023 30582 ft 468 kts 352°
2026-04-28 19:18 8.65688 125.46498 30842 ft 470 kts 352°
2026-04-28 19:18 8.68923 125.45970 31102 ft 472 kts 352°
2026-04-28 19:19 8.72166 125.45439 31351 ft 473 kts 352°
2026-04-28 19:19 8.75428 125.44904 31600 ft 474 kts 352°
2026-04-28 19:19 8.78693 125.44369 31845 ft 474 kts 352°
2026-04-28 19:19 8.81944 125.43837 31905 ft 465 kts 352°
2026-04-28 19:20 8.85079 125.43323 31907 ft 450 kts 352°
2026-04-28 19:20 8.88109 125.42829 31910 ft 444 kts 352°
2026-04-28 19:20 8.94190 125.41839 31906 ft 441 kts 352°
2026-04-28 19:21 9.00257 125.40848 31907 ft 440 kts 352°
2026-04-28 19:21 9.05936 125.39921 31903 ft 440 kts 352°
2026-04-28 19:22 9.09941 125.39266 31905 ft 440 kts 352°
2026-04-28 19:22 9.17990 125.37948 31903 ft 440 kts 352°
2026-04-28 19:23 9.24057 125.36957 31903 ft 440 kts 352°
2026-04-28 19:23 9.29091 125.36134 31898 ft 440 kts 352°
2026-04-28 19:24 9.36113 125.34979 31894 ft 440 kts 352°
2026-04-28 19:24 9.42174 125.33987 31885 ft 440 kts 352°
2026-04-28 19:25 9.47201 125.33167 31883 ft 440 kts 352°
2026-04-28 19:25 9.53241 125.32177 31886 ft 440 kts 352°
2026-04-28 19:26 9.59287 125.31186 31887 ft 440 kts 352°
2026-04-28 19:26 9.65333 125.30195 31888 ft 440 kts 352°
2026-04-28 19:27 9.71378 125.29202 31891 ft 440 kts 352°
2026-04-28 19:27 9.77368 125.28215 31686 ft 431 kts 352°
2026-04-28 19:28 9.80325 125.27729 31460 ft 428 kts 352°
2026-04-28 19:28 9.83250 125.27249 31225 ft 424 kts 352°
2026-04-28 19:28 9.86158 125.26771 30987 ft 422 kts 352°
2026-04-28 19:28 9.89053 125.26297 30754 ft 420 kts 352°
2026-04-28 19:29 9.91940 125.25825 30524 ft 418 kts 352°
2026-04-28 19:29 9.93838 125.25514 30374 ft 417 kts 352°
2026-04-28 19:29 9.97665 125.24881 30073 ft 415 kts 352°
2026-04-28 19:29 10.00515 125.24409 29827 ft 414 kts 352°
2026-04-28 19:30 10.03356 125.23940 29550 ft 413 kts 352°
2026-04-28 19:30 10.06185 125.23472 29301 ft 411 kts 352°
2026-04-28 19:30 10.08997 125.23009 29042 ft 408 kts 352°
2026-04-28 19:30 10.11798 125.22551 28781 ft 406 kts 352°
2026-04-28 19:31 10.14586 125.22096 28525 ft 404 kts 352°
2026-04-28 19:31 10.17356 125.21644 28272 ft 402 kts 352°
2026-04-28 19:31 10.20114 125.21194 28025 ft 399 kts 352°
2026-04-28 19:31 10.22792 125.20754 27663 ft 393 kts 352°
2026-04-28 19:32 10.25479 125.20309 27227 ft 389 kts 352°
2026-04-28 19:32 10.28143 125.19868 26778 ft 386 kts 352°
2026-04-28 19:32 10.30789 125.19430 26326 ft 384 kts 353°
2026-04-28 19:32 10.33417 125.18994 25865 ft 382 kts 352°
2026-04-28 19:33 10.36033 125.18560 25406 ft 380 kts 352°
2026-04-28 19:33 10.38639 125.18129 24929 ft 379 kts 353°
2026-04-28 19:33 10.41240 125.17701 24453 ft 378 kts 353°
2026-04-28 19:33 10.43838 125.17273 23952 ft 378 kts 353°
2026-04-28 19:34 10.46433 125.16847 23463 ft 377 kts 353°
2026-04-28 19:34 10.49023 125.16420 22917 ft 376 kts 353°
2026-04-28 19:34 10.51605 125.15996 22429 ft 374 kts 352°
2026-04-28 19:34 10.54176 125.15573 21959 ft 372 kts 352°
2026-04-28 19:35 10.56708 125.15157 21484 ft 362 kts 352°
2026-04-28 19:35 10.59146 125.14756 21052 ft 349 kts 352°
2026-04-28 19:35 10.61473 125.14369 20630 ft 338 kts 353°
2026-04-28 19:35 10.63769 125.13986 20221 ft 334 kts 353°
2026-04-28 19:36 10.66062 125.13607 19802 ft 334 kts 353°
2026-04-28 19:36 10.68358 125.13230 19387 ft 335 kts 353°
2026-04-28 19:36 10.70664 125.12852 18971 ft 336 kts 353°
2026-04-28 19:36 10.72975 125.12470 18554 ft 336 kts 353°
2026-04-28 19:37 10.75289 125.12086 18137 ft 337 kts 353°
2026-04-28 19:37 10.76852 125.11829 17820 ft 337 kts 353°
2026-04-28 19:37 10.79925 125.11320 17269 ft 336 kts 353°
2026-04-28 19:37 10.82236 125.10992 16862 ft 333 kts 359°
2026-04-28 19:38 10.84551 125.11021 16469 ft 331 kts
2026-04-28 19:38 10.86853 125.11101 16077 ft 330 kts
2026-04-28 19:38 10.89145 125.11176 15686 ft 330 kts
2026-04-28 19:38 10.91436 125.11248 15291 ft 329 kts
2026-04-28 19:39 10.93722 125.11320 14971 ft 327 kts
2026-04-28 19:39 10.95990 125.11392 14608 ft 326 kts
2026-04-28 19:39 10.98220 125.11466 14217 ft 322 kts
2026-04-28 19:39 11.00425 125.11538 13845 ft 311 kts
2026-04-28 19:40 11.02558 125.11607 13461 ft 300 kts
2026-04-28 19:40 11.04615 125.11706 13101 ft 292 kts
2026-04-28 19:40 11.06639 125.11843 12747 ft 292 kts
2026-04-28 19:40 11.08674 125.11994 12371 ft 292 kts
2026-04-28 19:41 11.10710 125.12145 12010 ft 293 kts
2026-04-28 19:41 11.12739 125.12293 11642 ft 293 kts
2026-04-28 19:41 11.14747 125.12435 11270 ft 293 kts
2026-04-28 19:41 11.16779 125.12576 10896 ft 293 kts
2026-04-28 19:42 11.18813 125.12715 10510 ft 293 kts
2026-04-28 19:42 11.20855 125.12852 10120 ft 293 kts
2026-04-28 19:42 11.22888 125.12988 9861 ft 288 kts
2026-04-28 19:42 11.24213 125.13075 9519 ft 291 kts
2026-04-28 19:43 11.26899 125.13255 8774 ft 284 kts
2026-04-28 19:43 11.28859 125.13386 8189 ft 279 kts
2026-04-28 19:43 11.30779 125.13514 7609 ft 274 kts
2026-04-28 19:43 11.32663 125.13641 7049 ft 269 kts
2026-04-28 19:44 11.34521 125.13768 6485 ft 266 kts
2026-04-28 19:44 11.36353 125.13893 5988 ft 262 kts
2026-04-28 19:44 11.38167 125.14006 5545 ft 257 kts
2026-04-28 19:44 11.39920 125.14122 5110 ft 248 kts
2026-04-28 19:45 11.41616 125.14233 4683 ft 241 kts
2026-04-28 19:45 11.43274 125.14327 4230 ft 235 kts
2026-04-28 19:45 11.44871 125.14405 3797 ft 230 kts
2026-04-28 19:45 11.46457 125.14473 3369 ft 226 kts
2026-04-28 19:46 11.48024 125.14537 2927 ft 223 kts
2026-04-28 19:46 11.49566 125.14602 2494 ft 221 kts
2026-04-28 19:46 11.51090 125.14448 2143 ft 219 kts 342°
2026-04-28 19:46 11.52324 125.13647 2111 ft 210 kts 315°
2026-04-28 19:47 11.53044 125.12385 2120 ft 207 kts 287°
2026-04-28 19:47 11.53110 125.10931 2121 ft 207 kts 257°
2026-04-28 19:47 11.52511 125.09612 2124 ft 205 kts 228°
2026-04-28 19:47 11.51405 125.08726 2131 ft 201 kts 201°
2026-04-28 19:48 11.50123 125.08161 2119 ft 201 kts 200°
2026-04-28 19:48 11.48840 125.07594 2123 ft 201 kts 200°
2026-04-28 19:48 11.47567 125.07028 2135 ft 195 kts 200°
2026-04-28 19:48 11.46390 125.06501 2123 ft 175 kts 200°
2026-04-28 19:49 11.45313 125.06019 2115 ft 164 kts 200°
2026-04-28 19:49 11.44287 125.05562 2120 ft 159 kts 200°
2026-04-28 19:49 11.43277 125.05113 2124 ft 158 kts 200°
2026-04-28 19:49 11.42286 125.04674 2131 ft 157 kts 199°
2026-04-28 19:50 11.40253 125.03952 1964 ft 152 kts 183°
2026-04-28 19:50 11.39207 125.03870 1778 ft 150 kts 179°
2026-04-28 19:50 11.38154 125.03802 1711 ft 152 kts 179°
2026-04-28 19:51 11.37104 125.03732 1732 ft 152 kts 179°
2026-04-28 19:51 11.36065 125.03663 1718 ft 151 kts 179°
2026-04-28 19:51 11.35011 125.03593 1718 ft 152 kts 179°
2026-04-28 19:51 11.33954 125.03522 1718 ft 152 kts 179°
2026-04-28 19:52 11.32898 125.03452 1719 ft 151 kts 179°
2026-04-28 19:52 11.31840 125.03383 1590 ft 149 kts 180°
2026-04-28 19:52 11.30831 125.03315 1388 ft 145 kts 180°
2026-04-28 19:52 11.29831 125.03249 1201 ft 143 kts 180°
2026-04-28 19:53 11.28841 125.03184 1020 ft 142 kts 181°
2026-04-28 19:53 11.27856 125.03121 833 ft 141 kts 182°
2026-04-28 19:53 11.26883 125.03056 660 ft 139 kts 183°
2026-04-28 19:53 11.25916 125.02991 478 ft 138 kts 184°
2026-04-28 19:54 11.24956 125.02927 267 ft 137 kts 185°
2026-04-28 19:54 11.24003 125.02854 101 ft 137 kts 184°
2026-04-28 19:54 11.23100 125.02790 13 ft 111 kts 183°
2026-04-28 19:54 11.22635 125.02767 15 ft 24 kts 184°
2026-04-28 19:55 11.22462 125.02755 15 ft 23 kts 184°
2026-04-28 19:55 11.22321 125.02746 15 ft 16 kts 183°
2026-04-28 19:55 11.22233 125.02740 16 ft 12 kts 183°
2026-04-28 19:55 11.22157 125.02736 16 ft 10 kts 183°
2026-04-28 19:56 11.22091 125.02732 16 ft 9 kts 183°
2026-04-28 19:56 11.22030 125.02728 16 ft 8 kts 183°
2026-04-28 19:56 11.21972 125.02724 15 ft 8 kts 184°
2026-04-28 19:56 11.21915 125.02721 15 ft 8 kts 184°
2026-04-28 19:57 11.21862 125.02730 14 ft 8 kts 156°
2026-04-28 19:57 11.21815 125.02733 14 ft 6 kts 207°
2026-04-28 19:57 11.21817 125.02702 14 ft 4 kts 320°
2026-04-28 19:57 11.21839 125.02703 14 ft 3 kts
2026-04-28 19:58 11.21861 125.02706 14 ft 6 kts
2026-04-28 19:58 11.21921 125.02717 15 ft 9 kts 10°
2026-04-28 19:58 11.21975 125.02724 15 ft 7 kts
2026-04-28 19:58 11.22018 125.02726 17 ft 6 kts
2026-04-28 19:59 11.22077 125.02730 16 ft 10 kts
2026-04-28 19:59 11.22146 125.02735 16 ft 9 kts
2026-04-28 19:59 11.22207 125.02738 17 ft 9 kts
2026-04-28 19:59 11.22265 125.02742 15 ft 8 kts
2026-04-28 20:00 11.22320 125.02745 15 ft 8 kts
2026-04-28 20:00 11.22370 125.02748 15 ft 7 kts
2026-04-28 20:00 11.22413 125.02751 15 ft 6 kts
2026-04-28 20:00 11.22449 125.02754 16 ft 5 kts
2026-04-28 20:01 11.22500 125.02757 14 ft 5 kts
2026-04-28 20:01 11.22534 125.02759 16 ft 4 kts
2026-04-28 20:01 11.22557 125.02747 16 ft 4 kts 309°
2026-04-28 20:01 11.22564 125.02722 15 ft 5 kts 285°
2026-04-28 20:02 11.22584 125.02692 15 ft 5 kts 324°
2026-04-28 20:02 11.22617 125.02680 14 ft 5 kts 329°
2026-04-28 20:02 11.22637 125.02656 14 ft 4 kts 307°
2026-04-28 20:02 11.22641 125.02651 14 ft 0 kts 307°